Waarnemingen

Advertentie
Mijn weer
Trier-Petrisberg, Duitsland (10609): temperatuur & dauwpunt: 13.10.2017 12:00:00 - 19.10.2017 12:00:00 (CEST)Trier-Petrisberg, Duitsland (10609): temperatuur 5cm & temperatuur -5cm: 13.10.2017 12:00:00 - 19.10.2017 12:00:00 (CEST)Trier-Petrisberg, Duitsland (10609): temperatuur -20cm & temperatuur -100cm: 13.10.2017 12:00:00 - 19.10.2017 12:00:00 (CEST)Trier-Petrisberg, Duitsland (10609): windsnelheid & windstoten: 13.10.2017 12:00:00 - 19.10.2017 12:00:00 (CEST)Trier-Petrisberg, Duitsland (10609): windrichting: 13.10.2017 12:00:00 - 19.10.2017 12:00:00 (CEST)Trier-Petrisberg, Duitsland (10609): luchtdruk: 13.10.2017 12:00:00 - 19.10.2017 12:00:00 (CEST)Trier-Petrisberg, Duitsland (10609): zicht: 13.10.2017 12:00:00 - 19.10.2017 12:00:00 (CEST)Trier-Petrisberg, Duitsland (10609): Zonneschijnduur: 13.10.2017 12:00:00 - 19.10.2017 12:00:00 (CEST)Trier-Petrisberg, Duitsland (10609): neerslag: 13.10.2017 12:00:00 - 19.10.2017 12:00:00 (CEST)
Datum & Tijd tt [°C] td [°C] tt 5cm [°C] tt -5cm [°C] tt -20cm [°C] tt -100cm [°C] ff [km/u] ff [kn] fx [km/u] fx [kn] dd ppp [hPa] vv [km] sd [min] rr [mm]
19.10.2017 12:00:00 10,5 9,0 12,2 13,7 14,0 15,4 3 2 8 4 NO 1014,0 19 8 0,0
19.10.2017 11:00:00 8,5 7,8 9,7 12,7 14,0 15,4 1 1 6 3 NNW 1014,2 0,3 0 0,0
19.10.2017 10:00:00 7,5 7,0 8,4 11,6 14,1 15,4 2 1 9 5 NO 1014,4 0,2 0 0,0
19.10.2017 09:00:00 7,2 6,9 7,8 11,3 14,2 15,4 6 3 11 6 NNO 1014,1 0,2 0 0,0
19.10.2017 08:00:00 7,2 6,9 7,5 11,3 14,3 15,4 5 3 9 5 NNO 1013,8 0,2 0 0,0
19.10.2017 07:00:00 7,6 7,3 8,2 11,3 14,5 15,4 0 0 10 5 O 1013,9 0,1 0 0,0
19.10.2017 06:00:00 7,8 7,7 8,1 11,2 14,7 15,4 5 3 12 6 NNO 1013,8 0,2 0 0,0
19.10.2017 05:00:00 7,7 7,3 7,5 11,3 14,9 15,4 4 2 10 6 NNO 1014,2 0,4 0 0,0
19.10.2017 04:00:00 8,4 8,0 7,6 11,2 15,2 15,4 3 2 8 4 N 1014,1 0,3 0 0,0
19.10.2017 03:00:00 8,9 8,6 6,3 11,5 15,4 15,4 3 1 9 5 ONO 1014,2 7 0 0,0
19.10.2017 02:00:00 9,3 8,8 6,8 12,1 15,7 15,3 8 4 11 6 NO 1014,2 15 0 0,0
19.10.2017 01:00:00 9,8 9,0 7,6 12,6 16,0 15,3 5 3 8 4 NO 1014,4 16 0 0,0
19.10.2017 00:00:00 10,5 9,7 7,9 13,2 16,3 15,3 5 3 11 6 NO 1014,4 16 0 0,0
18.10.2017 23:00:00 11,3 9,7 8,5 13,9 16,5 15,3 0 0 8 5 ONO 1014,4 27 0 0,0
18.10.2017 22:00:00 12,0 10,2 9,7 14,7 16,8 15,3 4 2 7 4 ONO 1014,3 27 0 0,0
18.10.2017 21:00:00 14,1 10,5 10,1 15,8 17,0 15,3 5 3 9 5 O 1014,1 44 0 0,0
18.10.2017 20:00:00 15,0 10,8 11,4 17,0 17,0 15,3 7 4 11 6 OZO 1014,0 45 0 0,0
18.10.2017 19:00:00 15,5 10,8 12,8 18,8 16,9 15,3 6 4 11 6 ZZO 1013,7 48 16 0,0
18.10.2017 18:00:00 18,6 9,5 18,7 20,7 16,6 15,3 9 5 19 11 Z 1013,5 58 60 0,0
18.10.2017 17:00:00 19,9 10,3 19,7 21,7 16,2 15,4 11 6 19 10 ZW 1013,3 59 60 0,0
18.10.2017 16:00:00 20,0 8,9 21,9 21,8 15,6 15,4 12 6 23 12 WZW 1013,4 68 60 0,0
18.10.2017 15:00:00 19,8 8,7 22,3 21,1 15,1 15,4 14 7 23 12 ZW 1013,6 70 60 0,0
18.10.2017 14:00:00 19,3 9,3 22,2 19,3 14,6 15,4 11 6 21 11 ZZW 1014,3 62 60 0,0
18.10.2017 13:00:00 17,7 9,7 20,2 17,3 14,4 15,4 8 4 16 8 Z 1015,2 47 60 0,0
18.10.2017 12:00:00 14,5 9,7 16,7 15,1 14,2 15,4 6 3 10 5 ZW 1015,8 37 60 0,0
18.10.2017 11:00:00 11,4 8,6 13,2 13,2 14,2 15,4 4 2 9 5 ZW 1016,4 25 60 0,0
18.10.2017 10:00:00 9,5 9,0 10,9 11,7 14,4 15,4 5 3 9 5 WZW 1016,6 2,6 42 0,0
18.10.2017 09:00:00 8,1 7,9 8,1 11,3 14,5 15,4 5 3 8 4 WNW 1016,6 0,2 0 0,0
18.10.2017 08:00:00 7,2 6,8 7,0 11,9 14,7 15,4 2 1 9 5 ZZW 1016,3 0,2 0 0,0
18.10.2017 07:00:00 8,7 8,4 8,6 12,2 14,8 15,4 3 2 7 4 NNO 1016,4 0,3 0 0,0
18.10.2017 06:00:00 9,4 9,2 9,6 12,5 15,0 15,3 3 2 9 5 N 1016,5 0,3 0 0,0
18.10.2017 05:00:00 9,3 9,0 9,6 12,6 15,1 15,3 5 3 9 5 NNO 1016,6 0,2 0 0,0
18.10.2017 04:00:00 9,4 9,2 9,7 12,7 15,3 15,3 4 2 9 5 NO 1017,0 0,2 0 0,0
18.10.2017 03:00:00 10,3 10,1 10,3 12,8 15,5 15,3 7 4 12 6 NNO 1017,3 0,3 0 0,0
18.10.2017 02:00:00 10,7 10,4 10,3 12,9 15,7 15,3 5 3 11 6 N 1017,5 0,4 0 0,0
18.10.2017 01:00:00 12,4 12,3 9,4 13,1 15,9 15,3 4 2 10 6 NO 1017,6 0,9 0 0,0
18.10.2017 00:00:00 12,5 12,0 9,2 13,8 16,2 15,3 5 3 13 7 NNO 1017,9 6 0 0,0
17.10.2017 23:00:00 13,3 12,3 10,4 14,5 16,4 15,3 6 3 7 4 NO 1018,3 16 0 0,0
17.10.2017 22:00:00 14,4 12,9 11,4 15,3 16,5 15,3 7 4 10 6 NO 1018,3 24 0 0,0
17.10.2017 21:00:00 15,6 13,3 12,8 16,1 16,7 15,3 6 3 10 6 NO 1018,5 31 0 0,0
17.10.2017 20:00:00 16,5 13,5 13,1 17,2 16,7 15,3 5 3 9 5 NO 1018,8 36 0 0,0
17.10.2017 19:00:00 17,2 13,1 14,2 18,7 16,5 15,3 8 4 15 8 ONO 1018,8 39 4 0,0
17.10.2017 18:00:00 20,2 12,4 19,9 20,1 16,2 15,3 5 3 8 4 NO 1018,6 47 60 0,0
17.10.2017 17:00:00 21,2 12,1 21,0 20,8 15,8 15,3 4 2 10 5 W 1019,0 49 60 0,0
17.10.2017 16:00:00 21,1 11,9 22,7 20,7 15,3 15,3 3 2 9 5 WNW 1019,5 48 60 0,0
17.10.2017 15:00:00 19,8 11,2 22,7 19,9 14,9 15,3 5 3 12 7 WZW 1020,3 45 60 0,0
17.10.2017 14:00:00 18,3 10,9 21,0 18,3 14,5 15,4 6 3 11 6 W 1021,4 45 60 0,0
17.10.2017 13:00:00 16,0 9,8 18,7 16,6 14,2 15,4 4 2 8 4 W 1022,5 40 60 0,0
17.10.2017 12:00:00 14,8 10,6 16,2 14,7 14,1 15,4 3 2 6 3 ZW 1023,2 32 60 0,0
17.10.2017 11:00:00 12,4 10,4 12,9 12,9 14,1 15,3 1 1 4 2 ZZO 1023,9 13 59 0,0
17.10.2017 10:00:00 10,8 9,8 10,7 11,6 14,3 15,3 0 0 5 3 N 1024,2 7 60 0,0
17.10.2017 09:00:00 9,3 8,9 8,7 11,0 14,4 15,3 3 1 9 5 NO 1024,4 11 5 0,0
17.10.2017 08:00:00 9,0 8,5 7,3 11,1 14,6 15,3 4 2 8 5 NO 1024,3 6 0 0,0
17.10.2017 07:00:00 9,8 9,4 8,4 11,4 14,8 15,3 6 3 8 4 NNO 1024,1 8 0 0,0
17.10.2017 06:00:00 9,9 9,2 8,3 11,7 15,0 15,3 3 2 8 4 ZO 1024,0 11 0 0,0
17.10.2017 05:00:00 10,9 10,0 8,6 12,0 15,3 15,3 6 3 10 6 ZW 1023,4 13 0 0,0
17.10.2017 04:00:00 11,7 11,0 8,9 12,3 15,5 15,3 6 3 10 5 ZZW 1023,5 19 0 0,0
17.10.2017 03:00:00 11,9 10,6 9,2 12,7 15,7 15,3 8 4 10 5 WZW 1023,8 24 0 0,0
17.10.2017 02:00:00 12,2 10,5 9,0 13,2 15,9 15,3 5 3 11 6 W 1023,8 19 0 0,0
17.10.2017 01:00:00 15,4 11,5 11,2 13,7 16,2 15,3 9 5 10 5 WZW 1023,4 41 0 0,0
17.10.2017 00:00:00 16,2 11,3 11,2 14,2 16,4 15,2 7 4 9 5 WZW 1023,4 50 0 0,0
16.10.2017 23:00:00 16,8 11,6 12,2 14,8 16,6 15,2 7 4 9 5 WZW 1023,2 52 0 0,0
16.10.2017 22:00:00 17,0 10,8 12,0 15,5 16,8 15,2 3 2 9 5 NNO 1023,0 59 0 0,0
16.10.2017 21:00:00 18,2 11,5 14,0 16,4 16,9 15,2 8 4 17 9 ZW 1022,9 57 0 0,0
16.10.2017 20:00:00 18,0 11,1 13,9 17,5 17,0 15,2 11 6 15 8 Z 1022,8 62 0 0,0
16.10.2017 19:00:00 19,3 11,5 14,5 19,2 16,8 15,2 5 3 15 8 ZZO 1022,5 63 27 0,0
16.10.2017 18:00:00 21,3 10,6 20,0 20,9 16,5 15,3 8 5 20 11 Z 1022,2 66 60 0,0
16.10.2017 17:00:00 22,4 11,2 22,5 21,8 16,0 15,3 16 9 23 12 Z 1022,5 63 60 0,0
16.10.2017 16:00:00 23,5 12,0 25,0 21,7 15,5 15,3 8 5 13 7 ZW 1022,6 61 60 0,0
16.10.2017 15:00:00 22,7 10,6 25,3 20,8 14,9 15,3 5 3 10 5 ZW 1023,1 60 60 0,0
16.10.2017 14:00:00 20,5 11,7 23,4 19,2 14,5 15,3 8 4 13 7 WZW 1024,1 52 60 0,0
16.10.2017 13:00:00 18,1 12,8 21,0 17,2 14,2 15,3 4 2 10 6 ZW 1024,7 35 60 0,0
16.10.2017 12:00:00 15,0 11,3 16,3 15,0 14,0 15,3 5 3 7 4 ZW 1025,3 21 60 0,0
16.10.2017 11:00:00 12,2 10,1 13,2 13,0 14,0 15,3 2 1 5 3 W 1025,8 15 60 0,0
16.10.2017 10:00:00 10,1 9,8 11,2 11,6 14,2 15,3 5 3 10 5 O 1026,1 3,0 21 0,0
16.10.2017 09:00:00 9,1 8,7 9,0 11,0 14,3 15,3 3 2 7 4 NO 1025,6 1,6 0 0,0
16.10.2017 08:00:00 9,0 8,7 7,0 11,0 14,5 15,2 4 2 5 3 Z 1025,2 9 0 0,0
16.10.2017 07:00:00 9,9 9,6 8,2 11,3 14,7 15,2 3 2 5 3 Z 1025,1 7 0 0,0
16.10.2017 06:00:00 10,2 9,8 8,4 11,6 14,9 15,2 0 0 5 3 N 1025,0 8 0 0,0
16.10.2017 05:00:00 11,0 10,7 8,9 11,8 15,2 15,2 4 2 9 5 Z 1024,9 10 0 0,0
16.10.2017 04:00:00 11,3 11,0 9,0 12,1 15,4 15,2 6 4 10 6 Z 1025,2 9 0 0,0
16.10.2017 03:00:00 11,8 11,6 8,7 12,5 15,6 15,2 7 4 8 5 ZW 1025,1 8 0 0,0
16.10.2017 02:00:00 12,6 11,9 9,4 13,0 15,9 15,2 4 2 7 4 ZZW 1025,2 18 0 0,0
16.10.2017 01:00:00 13,2 11,9 9,8 13,5 16,1 15,2 6 3 9 5 ZW 1025,2 23 0 0,0
16.10.2017 00:00:00 14,0 12,4 10,6 14,1 16,3 15,2 6 3 11 6 ZW 1025,2 27 0 0,0
15.10.2017 23:00:00 14,4 13,1 11,0 14,6 16,6 15,1 8 4 11 6 WZW 1024,7 24 0 0,0
15.10.2017 22:00:00 14,4 12,6 11,2 15,4 16,8 15,1 5 3 8 4 ZZW 1024,4 29 0 0,0
15.10.2017 21:00:00 15,4 12,4 11,9 16,4 16,9 15,1 7 4 9 5 ZZO 1024,1 37 0 0,0
15.10.2017 20:00:00 16,3 12,5 13,1 17,6 16,9 15,1 5 3 13 7 Z 1024,0 43 0 0,0
15.10.2017 19:00:00 18,1 12,6 14,3 19,3 16,7 15,1 9 5 17 9 ZZW 1023,2 48 32 0,0
15.10.2017 18:00:00 20,8 11,4 21,6 21,0 16,4 15,1 9 5 24 13 Z 1022,7 48 60 0,0
15.10.2017 17:00:00 22,3 12,5 22,4 21,8 15,9 15,2 11 6 20 11 ZZW 1022,7 53 60 0,0
15.10.2017 16:00:00 22,2 12,5 24,6 21,5 15,4 15,2 12 6 18 10 ZW 1023,3 46 60 0,0
15.10.2017 15:00:00 19,9 12,5 23,1 20,2 14,9 15,2 8 5 14 8 ZW 1023,8 51 60 0,0
15.10.2017 14:00:00 16,3 11,6 19,9 18,4 14,6 15,1 6 3 11 6 W 1024,8 50 60 0,0
15.10.2017 13:00:00 13,9 11,5 16,5 16,0 14,4 15,1 2 1 5 3 ZZW 1025,7 22 26 0,0
15.10.2017 12:00:00 11,1 10,5 12,2 14,6 14,3 15,1 1 1 9 5 NNW 1026,8 0,3 0 0,0
15.10.2017 11:00:00 10,0 9,7 10,8 13,4 14,3 15,1 4 2 7 4 NNO 1027,1 0,2 0 0,0
15.10.2017 10:00:00 9,2 9,0 10,3 12,6 14,4 15,1 4 2 6 3 NNO 1027,3 0,2 0 0,0
15.10.2017 09:00:00 8,4 8,1 9,0 12,3 14,5 15,1 4 2 10 6 NO 1027,1 0,2 0 0,0
15.10.2017 08:00:00 8,8 8,6 9,2 12,3 14,6 15,1 5 3 7 4 NO 1026,9 0,3 0 0,0
15.10.2017 07:00:00 8,6 8,2 9,0 12,4 14,8 15,1 3 2 9 5 NNO 1026,9 0,2 0 0,0
15.10.2017 06:00:00 9,4 9,0 9,7 12,5 14,9 15,1 2 1 10 6 NNO 1026,8 0,2 0 0,0
15.10.2017 05:00:00 9,4 9,2 9,7 12,4 15,1 15,1 4 2 8 5 NO 1026,7 0,2 0 0,0
15.10.2017 04:00:00 9,6 9,3 9,7 12,4 15,3 15,0 4 2 11 6 NO 1026,7 0,2 0 0,0
15.10.2017 03:00:00 9,8 9,5 9,0 12,5 15,6 15,0 3 2 5 3 NNW 1026,9 0,3 0 0,0
15.10.2017 02:00:00 10,6 10,2 8,3 12,8 15,8 15,0 2 1 10 5 O 1027,3 0,6 0 0,0
15.10.2017 01:00:00 11,7 11,2 9,0 13,4 16,1 15,0 4 2 6 3 NNO 1027,3 22 0 0,0
15.10.2017 00:00:00 12,1 11,5 9,7 14,0 16,3 15,0 3 1 9 5 O 1027,5 19 0 0,0
14.10.2017 23:00:00 12,8 12,2 11,0 14,8 16,6 15,0 7 4 11 6 N 1027,5 30 0 0,0
14.10.2017 22:00:00 13,3 12,0 11,4 15,6 16,8 15,0 5 3 13 7 OZO 1027,5 48 0 0,0
14.10.2017 21:00:00 14,9 13,1 12,4 16,6 16,9 15,0 9 5 13 7 NNO 1027,4 56 0 0,0
14.10.2017 20:00:00 15,8 12,8 13,2 17,8 16,9 15,0 5 3 8 4 OZO 1026,8 70 0 0,0
14.10.2017 19:00:00 17,8 12,7 14,9 19,5 16,7 15,0 2 1 5 3 OZO 1026,3 70 45 0,0
14.10.2017 18:00:00 21,3 11,0 22,0 21,2 16,4 15,0 3 2 10 6 Z 1025,9 70 60 0,0
14.10.2017 17:00:00 20,9 11,4 22,8 21,9 15,9 15,0 5 3 13 7 WZW 1026,2 70 60 0,0
14.10.2017 16:00:00 20,9 11,9 23,7 21,9 15,3 15,0 6 3 14 8 W 1026,2 70 60 0,0
14.10.2017 15:00:00 19,8 11,7 22,9 20,9 14,8 15,0 5 3 10 5 ZW 1026,8 70 60 0,0
14.10.2017 14:00:00 18,1 11,1 22,4 19,1 14,4 15,0 3 2 9 5 NNW 1027,6 70 60 0,0
14.10.2017 13:00:00 16,3 13,2 19,0 16,9 14,1 15,0 6 3 9 5 ZO 1028,3 45 55 0,0
14.10.2017 12:00:00 11,7 10,7 13,7 14,8 14,0 15,0 3 1 6 4 ZZW 1029,6 1,3 4 0,0
14.10.2017 11:00:00 10,4 9,7 11,7 13,6 14,0 15,0 1 1 5 3 ZZW 1029,7 0,2 0 0,0
14.10.2017 10:00:00 9,6 9,1 10,7 12,6 14,0 14,9 0 0 4 2 N 1029,4 0,2 0 0,0
14.10.2017 09:00:00 8,9 8,6 9,5 12,0 14,2 14,9 3 1 7 4 O 1029,0 0,2 0 0,0
14.10.2017 08:00:00 8,9 8,6 9,2 12,0 14,3 14,9 5 3 9 5 NNO 1028,7 0,2 0 0,0
14.10.2017 07:00:00 9,0 8,7 9,2 12,1 14,4 14,9 4 2 5 3 NNO 1028,8 0,2 0 0,0
14.10.2017 06:00:00 9,0 8,6 9,1 12,4 14,5 14,9 3 1 5 3 O 1028,6 0,2 0 0,0
14.10.2017 05:00:00 9,9 9,6 10,0 12,5 14,7 14,9 3 2 8 5 NO 1028,5 0,2 0 0,0
14.10.2017 04:00:00 10,3 10,0 10,0 12,7 14,8 14,9 3 1 9 5 NNW 1028,4 0,3 0 0,0
14.10.2017 03:00:00 10,5 10,2 10,2 12,8 15,0 14,9 5 3 10 5 N 1028,6 0,3 0 0,0
14.10.2017 02:00:00 11,2 10,8 10,2 13,1 15,1 14,9 4 2 6 3 NNW 1028,5 0,4 0 0,0
14.10.2017 01:00:00 12,0 11,8 11,5 13,1 15,3 14,8 3 2 7 4 W 1028,0 0,2 0 0,0
14.10.2017 00:00:00 12,5 12,2 9,9 13,4 15,5 14,8 3 2 5 3 ZW 1027,7 3,9 0 0,0
13.10.2017 23:00:00 12,4 11,6 10,0 14,0 15,7 14,8 2 1 5 3 ZZW 1027,8 22 0 0,0
13.10.2017 22:00:00 13,5 12,4 11,0 14,8 15,9 14,8 3 2 6 3 ZZW 1027,5 47 0 0,0
13.10.2017 21:00:00 14,0 12,5 11,9 15,7 16,0 14,8 4 2 6 3 ZZW 1027,3 55 0 0,0
13.10.2017 20:00:00 15,4 13,0 13,0 16,9 16,0 14,8 4 2 5 3 ZO 1027,1 70 0 0,0
13.10.2017 19:00:00 16,6 13,0 14,8 18,1 15,8 14,8 4 2 8 4 Z 1026,6 70 0 0,0
13.10.2017 18:00:00 17,9 12,8 17,7 19,3 15,5 14,8 6 3 13 7 W 1026,5 70 14 0,0
13.10.2017 17:00:00 19,2 12,6 21,4 19,6 15,2 14,8 9 5 19 10 ZZW 1026,4 70 58 0,0
13.10.2017 16:00:00 18,3 13,6 20,4 18,6 14,9 14,8 11 6 18 10 ZW 1026,7 70 3 0,0
13.10.2017 15:00:00 17,1 13,3 18,4 18,3 14,6 14,8 10 6 21 12 ZW 1027,0 70 0 0,0
13.10.2017 14:00:00 17,0 13,0 18,5 18,0 14,3 14,8 12 6 24 13 ZW 1027,2 70 5 0,0
13.10.2017 13:00:00 17,6 13,3 19,9 16,8 14,1 14,8 10 5 20 11 ZW 1027,2 69 10 0,0
13.10.2017 12:00:00 15,3 13,2 15,9 15,1 14,0 14,8 10 5 22 12 ZW 1027,7 33 0 0,0

tt = temperatuur
td = dauwpunt
tt 5cm = temperatuur 5cm
tt -5cm = temperatuur -5cm
tt -20cm = temperatuur -20cm
tt -100cm = temperatuur -100cm
ff = windsnelheid
fx = windstoten
dd = windrichting
ppp = luchtdruk
vv = zicht
sd = Zonneschijnduur
rr = neerslag

Weerstations in de omgeving